EJU785J LFKJ-LFML

Flight info

Callsign EJU785J
Flight time 0h 47m
Altitude 24000
Route TINOT
Aircraft A319/M-SDE3FGHIRWY/LB1

Departure

Time 2026-04-28 19:09
Airport Ajaccio Napoléon Bonaparte airport (LFKJ)

Arrival

Time 2026-04-28 19:56
Airport Marseille Provence Airport (LFML)
Time Latitude Longitude Altitude Speed Heading
2026-04-28 18:02 41.91845 8.79506 26 ft 0 kts 346°
2026-04-28 18:52 41.91850 8.79506 26 ft 3 kts 356°
2026-04-28 18:52 41.91865 8.79559 29 ft 11 kts 75°
2026-04-28 18:53 41.91954 8.79641 26 ft 24 kts 24°
2026-04-28 18:53 41.92115 8.79741 26 ft 26 kts 25°
2026-04-28 18:53 41.92279 8.79844 30 ft 26 kts 25°
2026-04-28 18:53 41.92445 8.79947 31 ft 26 kts 25°
2026-04-28 18:54 41.92613 8.80051 28 ft 25 kts 25°
2026-04-28 18:54 41.92729 8.80124 29 ft 12 kts 29°
2026-04-28 18:54 41.92796 8.80187 27 ft 12 kts 37°
2026-04-28 18:54 41.92856 8.80263 27 ft 12 kts 45°
2026-04-28 18:55 41.92872 8.80284 27 ft 0 kts 45°
2026-04-28 18:56 41.92873 8.80286 27 ft 2 kts 45°
2026-04-28 18:56 41.92903 8.80326 28 ft 0 kts 45°
2026-04-28 18:58 41.92924 8.80354 29 ft 0 kts 46°
2026-04-28 18:59 41.92928 8.80360 30 ft 6 kts 46°
2026-04-28 19:00 41.92947 8.80389 30 ft 0 kts 52°
2026-04-28 19:03 41.92962 8.80439 31 ft 13 kts 83°
2026-04-28 19:03 41.92962 8.80460 31 ft 0 kts 94°
2026-04-28 19:06 41.92961 8.80464 31 ft 2 kts 94°
2026-04-28 19:06 41.92899 8.80566 31 ft 2 kts 205°
2026-04-28 19:08 41.92842 8.80529 30 ft 40 kts 205°
2026-04-28 19:08 41.92343 8.80218 21 ft 114 kts 205°
2026-04-28 19:08 41.91461 8.79660 203 ft 150 kts 207°
2026-04-28 19:09 41.90516 8.79068 871 ft 150 kts 206°
2026-04-28 19:09 41.89560 8.78449 1427 ft 159 kts 210°
2026-04-28 19:09 41.88574 8.77587 1833 ft 179 kts 216°
2026-04-28 19:09 41.87489 8.76540 2163 ft 206 kts 217°
2026-04-28 19:10 41.86255 8.75351 2633 ft 231 kts 214°
2026-04-28 19:10 41.84868 8.74038 2988 ft 256 kts 213°
2026-04-28 19:10 41.83390 8.72652 3032 ft 261 kts 213°
2026-04-28 19:10 41.81896 8.71263 3041 ft 261 kts 213°
2026-04-28 19:11 41.80406 8.69881 3037 ft 260 kts 213°
2026-04-28 19:11 41.78892 8.68493 3391 ft 269 kts 212°
2026-04-28 19:11 41.77357 8.67109 4578 ft 264 kts 212°
2026-04-28 19:11 41.75833 8.65743 5664 ft 264 kts 212°
2026-04-28 19:12 41.74303 8.64376 6700 ft 265 kts 212°
2026-04-28 19:12 41.72841 8.62854 7612 ft 271 kts 227°
2026-04-28 19:12 41.71948 8.60618 8488 ft 279 kts 255°
2026-04-28 19:12 41.71933 8.58016 9412 ft 286 kts 282°
2026-04-28 19:13 41.72761 8.55567 10287 ft 294 kts 297°
2026-04-28 19:13 41.73808 8.53088 10631 ft 317 kts 298°
2026-04-28 19:13 41.74947 8.50418 10903 ft 341 kts 298°
2026-04-28 19:13 41.76152 8.47593 11359 ft 355 kts 298°
2026-04-28 19:14 41.77383 8.44693 12056 ft 360 kts 298°
2026-04-28 19:14 41.78609 8.41788 12793 ft 365 kts 297°
2026-04-28 19:14 41.79857 8.38811 13547 ft 369 kts 297°
2026-04-28 19:14 41.81120 8.35791 14236 ft 372 kts 297°
2026-04-28 19:15 41.82479 8.32808 14903 ft 377 kts 304°
2026-04-28 19:15 41.84240 8.30176 15572 ft 383 kts 316°
2026-04-28 19:15 41.86380 8.28017 15932 ft 388 kts 327°
2026-04-28 19:15 41.87176 8.27420 15980 ft 389 kts 331°
2026-04-28 19:16 41.91216 8.24763 16177 ft 386 kts 332°
2026-04-28 19:16 41.93644 8.23174 16661 ft 390 kts 332°
2026-04-28 19:16 41.96095 8.21561 17196 ft 394 kts 332°
2026-04-28 19:16 41.98565 8.19925 17856 ft 398 kts 332°
2026-04-28 19:17 42.01057 8.18271 18478 ft 401 kts 332°
2026-04-28 19:17 42.03533 8.16626 19045 ft 404 kts 332°
2026-04-28 19:17 42.06064 8.14945 19617 ft 407 kts 332°
2026-04-28 19:17 42.08611 8.13253 20185 ft 410 kts 332°
2026-04-28 19:18 42.11179 8.11544 20728 ft 413 kts 332°
2026-04-28 19:18 42.13763 8.09812 21267 ft 416 kts 331°
2026-04-28 19:18 42.16362 8.08068 21804 ft 418 kts 331°
2026-04-28 19:18 42.18979 8.06314 22318 ft 421 kts 331°
2026-04-28 19:19 42.21611 8.04555 22809 ft 424 kts 331°
2026-04-28 19:19 42.24265 8.02780 23309 ft 427 kts 331°
2026-04-28 19:19 42.26033 8.01595 23618 ft 429 kts 331°
2026-04-28 19:19 42.28714 7.99794 23930 ft 431 kts 331°
2026-04-28 19:20 42.31420 7.98034 24014 ft 437 kts 335°
2026-04-28 19:20 42.34312 7.96582 24046 ft 448 kts 338°
2026-04-28 19:20 42.37259 7.95152 24035 ft 452 kts 338°
2026-04-28 19:20 42.40230 7.93713 24031 ft 453 kts 338°
2026-04-28 19:21 42.43196 7.92277 24036 ft 453 kts 338°
2026-04-28 19:21 42.46165 7.90835 24039 ft 454 kts 338°
2026-04-28 19:21 42.49139 7.89385 24036 ft 454 kts 337°
2026-04-28 19:21 42.52104 7.87937 24039 ft 454 kts 337°
2026-04-28 19:22 42.55071 7.86484 24033 ft 454 kts 337°
2026-04-28 19:22 42.57042 7.85518 24038 ft 454 kts 337°
2026-04-28 19:22 42.61012 7.83567 24032 ft 453 kts 337°
2026-04-28 19:22 42.63979 7.82109 24032 ft 453 kts 337°
2026-04-28 19:23 42.66947 7.80652 24034 ft 453 kts 337°
2026-04-28 19:23 42.69915 7.79196 24029 ft 453 kts 337°
2026-04-28 19:23 42.72844 7.77759 24030 ft 453 kts 337°
2026-04-28 19:23 42.75810 7.76299 24033 ft 453 kts 337°
2026-04-28 19:24 42.78778 7.74834 24031 ft 453 kts 337°
2026-04-28 19:24 42.81743 7.73371 24031 ft 453 kts 337°
2026-04-28 19:24 42.84703 7.71910 24031 ft 453 kts 337°
2026-04-28 19:24 42.87677 7.70443 24031 ft 453 kts 337°
2026-04-28 19:25 42.90645 7.68979 24033 ft 453 kts 337°
2026-04-28 19:25 42.93613 7.67510 24033 ft 453 kts 337°
2026-04-28 19:25 42.96582 7.66035 24033 ft 453 kts 337°
2026-04-28 19:25 42.99543 7.64561 24037 ft 453 kts 337°
2026-04-28 19:26 43.02497 7.63059 24035 ft 452 kts 334°
2026-04-28 19:26 43.05235 7.61013 24034 ft 447 kts 322°
2026-04-28 19:26 43.07598 7.58303 24043 ft 442 kts 311°
2026-04-28 19:26 43.09526 7.55056 24034 ft 438 kts 300°
2026-04-28 19:27 43.10956 7.51409 24035 ft 434 kts 290°
2026-04-28 19:27 43.11847 7.47487 24032 ft 430 kts 279°
2026-04-28 19:27 43.12348 7.43457 24030 ft 429 kts 277°
2026-04-28 19:27 43.12830 7.39419 24028 ft 430 kts 277°
2026-04-28 19:28 43.13310 7.35382 24027 ft 430 kts 277°
2026-04-28 19:28 43.13783 7.31393 24026 ft 430 kts 277°
2026-04-28 19:28 43.14262 7.27347 24026 ft 430 kts 277°
2026-04-28 19:28 43.14738 7.23307 24026 ft 430 kts 277°
2026-04-28 19:29 43.15211 7.19268 24026 ft 430 kts 277°
2026-04-28 19:29 43.15529 7.16537 24025 ft 430 kts 277°
2026-04-28 19:29 43.16147 7.11181 24025 ft 430 kts 277°
2026-04-28 19:29 43.16614 7.07144 24025 ft 430 kts 277°
2026-04-28 19:30 43.17082 7.03091 24023 ft 430 kts 277°
2026-04-28 19:30 43.17550 6.99041 24027 ft 430 kts 277°
2026-04-28 19:30 43.18018 6.94985 24029 ft 431 kts 277°
2026-04-28 19:30 43.18484 6.90929 24031 ft 431 kts 277°
2026-04-28 19:31 43.18948 6.86879 24032 ft 431 kts 277°
2026-04-28 19:31 43.19411 6.82820 24036 ft 431 kts 277°
2026-04-28 19:31 43.19870 6.78767 24036 ft 431 kts 277°
2026-04-28 19:31 43.20328 6.74707 24035 ft 431 kts 277°
2026-04-28 19:32 43.20780 6.70666 24036 ft 422 kts 276°
2026-04-28 19:32 43.21221 6.66733 24043 ft 415 kts 276°
2026-04-28 19:32 43.21650 6.62882 24043 ft 413 kts 276°
2026-04-28 19:32 43.21986 6.58990 23346 ft 411 kts 271°
2026-04-28 19:33 43.22058 6.55023 21946 ft 421 kts 269°
2026-04-28 19:33 43.22108 6.50966 20577 ft 430 kts 269°
2026-04-28 19:33 43.22152 6.46842 19540 ft 431 kts 269°
2026-04-28 19:33 43.22201 6.42769 18451 ft 427 kts 269°
2026-04-28 19:34 43.22254 6.38763 17807 ft 413 kts 269°
2026-04-28 19:34 43.22313 6.34869 17219 ft 405 kts 269°
2026-04-28 19:34 43.22374 6.31028 16639 ft 400 kts 270°
2026-04-28 19:34 43.22433 6.27239 16089 ft 396 kts 270°
2026-04-28 19:35 43.22487 6.23488 15545 ft 392 kts 270°
2026-04-28 19:35 43.22537 6.19778 15001 ft 388 kts 270°
2026-04-28 19:35 43.22582 6.16095 14446 ft 384 kts 270°
2026-04-28 19:35 43.22625 6.12450 13897 ft 381 kts 270°
2026-04-28 19:36 43.22662 6.08829 13272 ft 378 kts 270°
2026-04-28 19:36 43.22693 6.05255 12678 ft 373 kts 270°
2026-04-28 19:36 43.22738 6.01710 12061 ft 370 kts 272°
2026-04-28 19:36 43.23054 5.98188 11766 ft 377 kts 277°
2026-04-28 19:37 43.23408 5.94655 11674 ft 380 kts 277°
2026-04-28 19:37 43.23648 5.92220 11613 ft 381 kts 277°
2026-04-28 19:37 43.24114 5.87459 11416 ft 380 kts 276°
2026-04-28 19:37 43.24464 5.83866 11260 ft 379 kts 277°
2026-04-28 19:38 43.24808 5.80300 11093 ft 368 kts 277°
2026-04-28 19:38 43.25133 5.76959 10957 ft 339 kts 277°
2026-04-28 19:38 43.25433 5.73870 10839 ft 315 kts 276°
2026-04-28 19:38 43.25712 5.70987 10577 ft 298 kts 276°
2026-04-28 19:39 43.25979 5.68194 10187 ft 292 kts 276°
2026-04-28 19:39 43.26237 5.65438 9963 ft 290 kts 275°
2026-04-28 19:39 43.26493 5.62694 9837 ft 290 kts 276°
2026-04-28 19:39 43.26752 5.59946 9704 ft 290 kts 276°
2026-04-28 19:40 43.27035 5.57209 9571 ft 290 kts 277°
2026-04-28 19:40 43.27353 5.54474 9440 ft 290 kts 278°
2026-04-28 19:40 43.27680 5.51744 9313 ft 290 kts 278°
2026-04-28 19:40 43.28009 5.49019 9180 ft 290 kts 278°
2026-04-28 19:41 43.28335 5.46287 9051 ft 290 kts 278°
2026-04-28 19:41 43.28657 5.43556 8922 ft 289 kts 278°
2026-04-28 19:41 43.28972 5.40825 8783 ft 290 kts 277°
2026-04-28 19:41 43.29284 5.38095 8655 ft 289 kts 278°
2026-04-28 19:42 43.29599 5.35366 8530 ft 289 kts 278°
2026-04-28 19:42 43.29914 5.32639 8403 ft 290 kts 277°
2026-04-28 19:42 43.30223 5.29948 8274 ft 288 kts 277°
2026-04-28 19:42 43.30430 5.28133 8179 ft 280 kts 278°
2026-04-28 19:43 43.30816 5.24778 8003 ft 256 kts 277°
2026-04-28 19:43 43.31084 5.22440 7885 ft 242 kts 277°
2026-04-28 19:43 43.31340 5.20207 7765 ft 233 kts 277°
2026-04-28 19:43 43.31586 5.18016 7639 ft 232 kts 277°
2026-04-28 19:44 43.31829 5.15859 7488 ft 223 kts 277°
2026-04-28 19:44 43.32064 5.13771 7386 ft 220 kts 277°
2026-04-28 19:44 43.32306 5.11605 7278 ft 251 kts 277°
2026-04-28 19:44 43.32587 5.09065 7155 ft 279 kts 277°
2026-04-28 19:45 43.32931 5.06417 7023 ft 285 kts 285°
2026-04-28 19:45 43.33890 5.04054 6951 ft 286 kts 313°
2026-04-28 19:45 43.35503 5.02471 7022 ft 287 kts 338°
2026-04-28 19:45 43.37395 5.01713 6934 ft 287 kts 345°
2026-04-28 19:46 43.39269 5.00752 6812 ft 287 kts 337°
2026-04-28 19:46 43.41097 4.99565 6689 ft 287 kts 334°
2026-04-28 19:46 43.42876 4.98336 6511 ft 287 kts 334°
2026-04-28 19:46 43.44655 4.97120 6148 ft 284 kts 334°
2026-04-28 19:47 43.46410 4.95961 5768 ft 283 kts 335°
2026-04-28 19:47 43.48188 4.94823 5386 ft 281 kts 336°
2026-04-28 19:47 43.49902 4.93545 5036 ft 279 kts 324°
2026-04-28 19:47 43.51346 4.91774 5006 ft 279 kts 315°
2026-04-28 19:48 43.52741 4.89895 5009 ft 280 kts 315°
2026-04-28 19:48 43.54140 4.88030 5005 ft 275 kts 316°
2026-04-28 19:48 43.55491 4.86299 5000 ft 256 kts 323°
2026-04-28 19:48 43.57050 4.85384 5004 ft 235 kts 354°
2026-04-28 19:49 43.58620 4.85594 5005 ft 225 kts 23°
2026-04-28 19:49 43.59902 4.86746 5032 ft 219 kts 51°
2026-04-28 19:49 43.60736 4.88479 5030 ft 217 kts 63°
2026-04-28 19:49 43.61488 4.90294 4892 ft 216 kts 65°
2026-04-28 19:50 43.61863 4.94239 4567 ft 207 kts 105°
2026-04-28 19:50 43.61335 4.96035 4385 ft 199 kts 122°
2026-04-28 19:50 43.60476 4.97453 4243 ft 191 kts 134°
2026-04-28 19:51 43.59570 4.98754 4131 ft 186 kts 134°
2026-04-28 19:51 43.58689 5.00021 3927 ft 180 kts 134°
2026-04-28 19:51 43.57829 5.01257 3686 ft 177 kts 134°
2026-04-28 19:51 43.56985 5.02468 3456 ft 173 kts 134°
2026-04-28 19:52 43.56158 5.03655 3232 ft 170 kts 134°
2026-04-28 19:52 43.55345 5.04819 3008 ft 167 kts 134°
2026-04-28 19:52 43.54546 5.05965 2787 ft 164 kts 134°
2026-04-28 19:52 43.53759 5.07091 2570 ft 161 kts 134°
2026-04-28 19:53 43.52990 5.08191 2361 ft 159 kts 135°
2026-04-28 19:53 43.52227 5.09284 2148 ft 157 kts 135°
2026-04-28 19:53 43.51475 5.10359 1942 ft 154 kts 134°
2026-04-28 19:53 43.50748 5.11399 1744 ft 145 kts 134°
2026-04-28 19:54 43.50087 5.12345 1562 ft 131 kts 134°
2026-04-28 19:54 43.49467 5.13231 1375 ft 126 kts 134°
2026-04-28 19:54 43.48864 5.14093 1208 ft 124 kts 135°
2026-04-28 19:54 43.48274 5.14935 1047 ft 124 kts 135°
2026-04-28 19:55 43.47670 5.15797 868 ft 125 kts 136°
2026-04-28 19:55 43.47069 5.16655 713 ft 126 kts 135°
2026-04-28 19:55 43.46459 5.17524 549 ft 126 kts 137°
2026-04-28 19:55 43.45844 5.18400 372 ft 129 kts 135°
2026-04-28 19:56 43.45225 5.19293 198 ft 129 kts 135°
2026-04-28 19:56 43.44603 5.20181 50 ft 128 kts 137°
2026-04-28 19:56 43.44034 5.20975 22 ft 96 kts 133°
2026-04-28 19:56 43.43690 5.21468 38 ft 47 kts 133°
2026-04-28 19:57 43.43522 5.21712 43 ft 30 kts 134°
2026-04-28 19:57 43.43399 5.21886 48 ft 22 kts 133°
2026-04-28 19:57 43.43334 5.22028 52 ft 14 kts 97°
2026-04-28 19:57 43.43334 5.22137 52 ft 9 kts 89°
2026-04-28 19:58 43.43338 5.22201 53 ft 7 kts 79°
2026-04-28 19:58 43.43382 5.22274 50 ft 14 kts 22°
2026-04-28 19:58 43.43478 5.22231 51 ft 16 kts 333°
2026-04-28 19:58 43.43584 5.22151 48 ft 19 kts 329°
2026-04-28 19:59 43.43701 5.22122 43 ft 11 kts 57°
2026-04-28 19:59 43.43736 5.22200 46 ft 11 kts 42°
2026-04-28 19:59 43.43788 5.22228 45 ft 9 kts 351°
2026-04-28 19:59 43.43847 5.22228 44 ft 8 kts 64°
2026-04-28 20:00 43.43858 5.22286 43 ft 2 kts 74°
2026-04-28 20:00 43.43861 5.22300 45 ft 0 kts 74°
2026-04-28 20:00 43.43863 5.22309 45 ft 1 kts 74°
2026-04-28 20:00 43.43863 5.22311 45 ft 0 kts 74°